Showing default

FLOCK 4G 31, 62652

Orbit data source: Space-Track

FLOCK 4G 31, 62652 is a payload satellite owned by Planet (US) in SSO that was launched on Tue, 14 Jan 2025 UTC via an FALCON 9 launch vehicle from the Air Force Western Test Range (AFWTR). Payload-class satellites include a variety of spacecraft equipped with specific instruments for various scientific and technological missions. These include communications satellites like Starlink; space stations such as the ISS; scientific satellites like the Hubble; Earth observation satellites from companies like Planet Labs, Umbra, and HawkEye 360; GPS; miniature CubeSats for education and research; and military/defense satellites.

Loading next visibility...
Identifier
62652, 2025-009AV
Orbit
SSO
Country
Flag of USUS
Related business
Manufacturer
Planet
Mission
Operational Commercial Imaging
Bus & Motor
CUBESAT 3U, Unknown motor
Mass
5.7 kg wet, 5.7 kg dry
Launch date (UTC)
2025-01-14 (1 year ago)
Launch vehicle
FALCON 9
Launch site
Air Force Western Test Range (AFWTR)
Object type
Payload
Rocket body
Debris
Shape & HBR
Box + 2 Pan, 1.0 m
Radar Cross Section
0.072 m², Medium (>0.1 m² and < 1m²)

Expand to show TLE details & history
Last TLE update: 7 hours ago

TLE from 7 hours ago
0 FLOCK 4G 31
1 62652U 25009AV  26038.20101683  .00013384  00000-0  52009-3 0  9995
2 62652  97.4060 120.7451 0002684  80.6245 279.5297 15.26176034 59060
Epoch: 2026-02-07T04:49Z
TLE epoch observation values (Epoch: 2026-02-07T04:49:27.854Z)
Latitude
0.00002°
Longitude
-88.9489°
Altitude
490.05 km
Speed
7.62 km/s
True Right ascension
08h 02m 58s
True Declination
0° 00' 00"
Sunlit
Object was in full shadow at epoch
Visualization orbit readout
Latitude
Unknown
Longitude
Unknown
Altitude
Unknown
Speed
Unknown
Apparent Right ascension
Unknown
Apparent Declination
Unknown
Sunlit
N/A
Visualization observer readout
Local Sidereal Time
14:22:40
Azimuth
Unknown
Elevation
Unknown
Doppler factor
Unknown
Orbital elements
Apogee altitude
486.056 km
Perigee altitude
482.372 km
Semi-major axis
6,862.351 km
Eccentricity
0.00027
Inclination
97.406°
RAAN
120.7451°
Arg. of periapsis
80.6245°
True anomaly
279.49937°
Mean anomaly
279.5297°
Eccentric anomaly
279.51453°
Mean motion
3.81798 °/min
Orbital period
94.29 mins
BSTAR
0.00052009
Loading maneuver chart data...
Computing Atmospheric mass density...
Loading historical data...
Loading historical data...
Loading historical data...
Loading historical data...
Loading historical data...
Loading historical data...
Loading historical data...

Documentation

Showing up to 5 results
|